| time (UTC) | temp F | wind direction | speed MPH | gust MPH | rain 1hr in | rain 24hr in | rain mn in | humidity % | barometer mb |
| 20260508184857 | 56 | 270 | 11.0 | 23.0 | 0.00 | 0.00 | 0.00 | 37 | 1008.6 |
| 20260508184352 | 57 | 270 | 2.0 | 20.0 | 0.00 | 0.00 | 0.00 | 38 | 1008.5 |
| 20260508183840 | 57 | 270 | 8.0 | 24.0 | 0.00 | 0.00 | 0.00 | 37 | 1008.3 |
| 20260508183328 | 56 | 293 | 15.0 | 27.0 | 0.00 | 0.00 | 0.00 | 36 | 1008.7 |
| 20260508182307 | 57 | 315 | 13.0 | 29.0 | 0.00 | 0.00 | 0.00 | 38 | 1008.7 |
| 20260508180229 | 57 | 270 | 8.0 | 27.0 | 0.00 | 0.00 | 0.00 | 41 | 1008.7 |
| 20260508175721 | 57 | 270 | 14.0 | 27.0 | 0.00 | 0.00 | 0.00 | 39 | 1008.8 |
| 20260508175212 | 56 | 270 | 16.0 | 27.0 | 0.00 | 0.00 | 0.00 | 40 | 1008.8 |
| 20260508174659 | 57 | 270 | 16.0 | 27.0 | 0.00 | 0.00 | 0.00 | 39 | 1008.8 |
| 20260508174149 | 57 | 270 | 8.0 | 22.0 | 0.00 | 0.00 | 0.00 | 40 | 1008.8 |
| 20260508173638 | 57 | 225 | 8.0 | 22.0 | 0.00 | 0.00 | 0.00 | 40 | 1008.8 |
| 20260508172620 | 56 | 248 | 11.0 | 25.0 | 0.00 | 0.00 | 0.00 | 43 | 1008.9 |
| 20260508172106 | 56 | 270 | 19.0 | 25.0 | 0.00 | 0.00 | 0.00 | 42 | 1008.9 |
| 20260508171558 | 56 | 293 | 21.0 | 25.0 | 0.00 | 0.00 | 0.00 | 42 | 1009.0 |
| 20260508171045 | 56 | 270 | 17.0 | 23.0 | 0.00 | 0.00 | 0.00 | 42 | 1009.0 |
| 20260508170544 | 56 | 270 | 11.0 | 20.0 | 0.00 | 0.00 | 0.00 | 43 | 1009.2 |
| 20260508170025 | 56 | 225 | 4.0 | 23.0 | 0.00 | 0.00 | 0.00 | 44 | 1009.2 |
| 20260508165515 | 55 | 248 | 10.0 | 23.0 | 0.00 | 0.00 | 0.00 | 44 | 1009.2 |
| 20260508165005 | 54 | 248 | 12.0 | 25.0 | 0.00 | 0.00 | 0.00 | 45 | 1009.4 |
| 20260508164457 | 54 | 248 | 17.0 | 29.0 | 0.00 | 0.00 | 0.00 | 45 | 1009.3 |
| 20260508163945 | 55 | 270 | 22.0 | 29.0 | 0.00 | 0.00 | 0.00 | 43 | 1009.5 |
| 20260508163435 | 55 | 270 | 4.0 | 22.0 | 0.00 | 0.00 | 0.00 | 46 | 1009.5 |
| 20260508162927 | 54 | 270 | 15.0 | 24.0 | 0.00 | 0.00 | 0.00 | 47 | 1009.6 |
| 20260508162414 | 54 | 293 | 15.0 | 24.0 | 0.00 | 0.00 | 0.00 | 45 | 1009.8 |
| 20260508161909 | 53 | 293 | 17.0 | 23.0 | 0.00 | 0.00 | 0.00 | 49 | 1009.7 |
| 20260508161359 | 54 | 270 | 5.0 | 23.0 | 0.00 | 0.00 | 0.00 | 49 | 1009.5 |
| 20260508160849 | 55 | 270 | 11.0 | 21.0 | 0.00 | 0.00 | 0.00 | 47 | 1009.7 |
| 20260508160337 | 54 | 248 | 10.0 | 21.0 | 0.00 | 0.00 | 0.00 | 48 | 1009.8 |
| 20260508155318 | 55 | 270 | 8.0 | 27.0 | 0.00 | 0.00 | 0.00 | 47 | 1009.9 |
| 20260508154803 | 55 | 248 | 19.0 | 27.0 | 0.00 | 0.00 | 0.00 | 48 | 1010.1 |
| 20260508154258 | 54 | 248 | 7.0 | 27.0 | 0.00 | 0.00 | 0.00 | 48 | 1010.2 |
| 20260508153746 | 53 | 248 | 15.0 | 27.0 | 0.00 | 0.00 | 0.00 | 49 | 1009.9 |
| 20260508153236 | 53 | 248 | 5.0 | 27.0 | 0.00 | 0.00 | 0.00 | 50 | 1010.2 |
| 20260508152723 | 53 | 270 | 10.0 | 27.0 | 0.00 | 0.00 | 0.00 | 48 | 1010.0 |
| 20260508152217 | 53 | 270 | 8.0 | 25.0 | 0.00 | 0.00 | 0.00 | 49 | 1010.2 |
| 20260508151704 | 53 | 248 | 8.0 | 25.0 | 0.00 | 0.00 | 0.00 | 50 | 1010.2 |
| 20260508150642 | 53 | 248 | 3.0 | 24.0 | 0.00 | 0.00 | 0.00 | 53 | 1010.2 |
| 20260508150137 | 52 | 293 | 6.0 | 24.0 | 0.00 | 0.00 | 0.00 | 54 | 1010.3 |
| 20260508145625 | 52 | 270 | 10.0 | 27.0 | 0.00 | 0.00 | 0.00 | 52 | 1010.4 |
| 20260508145117 | 52 | 338 | 4.0 | 29.0 | 0.00 | 0.00 | 0.00 | 52 | 1010.5 |
| 20260508144601 | 51 | 248 | 7.0 | 29.0 | 0.00 | 0.00 | 0.00 | 54 | 1010.5 |
| 20260508144054 | 51 | 270 | 16.0 | 27.0 | 0.00 | 0.00 | 0.00 | 52 | 1010.6 |
| 20260508143545 | 51 | 248 | 15.0 | 27.0 | 0.00 | 0.00 | 0.00 | 53 | 1010.7 |
| 20260508143044 | 51 | 270 | 14.0 | 21.0 | 0.00 | 0.00 | 0.00 | 53 | 1010.5 |
| 20260508142523 | 52 | 270 | 4.0 | 20.0 | 0.00 | 0.00 | 0.00 | 55 | 1010.6 |
| 20260508142018 | 51 | 270 | 11.0 | 21.0 | 0.00 | 0.00 | 0.00 | 54 | 1010.7 |
| 20260508140956 | 51 | 270 | 5.0 | 22.0 | 0.00 | 0.00 | 0.00 | 55 | 1010.7 |
| 20260508140447 | 51 | 248 | 14.0 | 27.0 | 0.00 | 0.00 | 0.00 | 53 | 1010.7 |
| 20260508135426 | 50 | 248 | 8.0 | 22.0 | 0.00 | 0.00 | 0.00 | 55 | 1010.7 |
| 20260508134912 | 50 | 225 | 7.0 | 25.0 | 0.00 | 0.00 | 0.00 | 56 | 1010.7 |
| 20260508133856 | 50 | 270 | 11.0 | 21.0 | 0.00 | 0.00 | 0.00 | 56 | 1010.4 |
| 20260508133343 | 50 | 270 | 6.0 | 21.0 | 0.00 | 0.00 | 0.00 | 56 | 1010.4 |
| 20260508132835 | 50 | 270 | 8.0 | 27.0 | 0.00 | 0.00 | 0.00 | 55 | 1010.4 |
| 20260508132320 | 50 | 270 | 14.0 | 27.0 | 0.00 | 0.00 | 0.00 | 54 | 1010.3 |
| 20260508131810 | 50 | 270 | 11.0 | 24.0 | 0.00 | 0.00 | 0.00 | 57 | 1010.3 |
| 20260508131303 | 50 | 225 | 9.0 | 17.0 | 0.00 | 0.00 | 0.00 | 56 | 1010.2 |
| 20260508130753 | 50 | 270 | 5.0 | 18.0 | 0.00 | 0.00 | 0.00 | 58 | 1010.2 |
| 20260508125732 | 49 | 248 | 8.0 | 25.0 | 0.00 | 0.00 | 0.00 | 60 | 1009.6 |
| 20260508125224 | 49 | 270 | 5.0 | 25.0 | 0.00 | 0.00 | 0.00 | 59 | 1009.8 |
| 20260508124715 | 49 | 225 | 8.0 | 18.0 | 0.00 | 0.00 | 0.00 | 61 | 1009.8 |
| 20260508122122 | 47 | 270 | 2.0 | 20.0 | 0.00 | 0.00 | 0.00 | 63 | 1009.3 |
| 20260508121614 | 47 | 225 | 5.0 | 20.0 | 0.00 | 0.00 | 0.00 | 63 | 1009.3 |
| 20260508121100 | 47 | 270 | 2.0 | 20.0 | 0.00 | 0.00 | 0.00 | 63 | 1009.5 |
| 20260508120549 | 46 | 270 | 6.0 | 23.0 | 0.00 | 0.00 | 0.00 | 63 | 1009.2 |
| 20260508115532 | 46 | 248 | 5.0 | 22.0 | 0.00 | 0.00 | 0.00 | 64 | 1009.2 |
| 20260508115018 | 46 | 270 | 3.0 | 18.0 | 0.00 | 0.00 | 0.00 | 63 | 1009.1 |
| 20260508114515 | 45 | 248 | 6.0 | 18.0 | 0.00 | 0.00 | 0.00 | 63 | 1009.1 |
| 20260508113450 | 45 | 270 | 2.0 | 23.0 | 0.00 | 0.00 | 0.00 | 65 | 1009.1 |
| 20260508112943 | 45 | 270 | 13.0 | 23.0 | 0.00 | 0.00 | 0.00 | 64 | 1008.8 |
| 20260508112430 | 44 | 248 | 4.0 | 22.0 | 0.00 | 0.00 | 0.00 | 65 | 1009.0 |
| 20260508111922 | 44 | 248 | 4.0 | 23.0 | 0.00 | 0.00 | 0.00 | 65 | 1009.0 |
| 20260508111412 | 44 | 248 | 9.0 | 23.0 | 0.00 | 0.00 | 0.00 | 65 | 1009.1 |
| 20260508110905 | 44 | 248 | 14.0 | 23.0 | 0.00 | 0.00 | 0.00 | 65 | 1008.7 |
| 20260508110352 | 44 | 270 | 4.0 | 18.0 | 0.00 | 0.00 | 0.00 | 65 | 1009.0 |
| 20260508105842 | 44 | 248 | 7.0 | 27.0 | 0.00 | 0.00 | 0.00 | 66 | 1008.8 |
| 20260508105332 | 44 | 270 | 6.0 | 27.0 | 0.00 | 0.00 | 0.00 | 66 | 1008.7 |
| 20260508104822 | 44 | 270 | 15.0 | 22.0 | 0.00 | 0.00 | 0.00 | 66 | 1008.7 |
| 20260508104307 | 44 | 248 | 5.0 | 20.0 | 0.00 | 0.00 | 0.00 | 66 | 1008.4 |
| 20260508103246 | 43 | 270 | 3.0 | 15.0 | 0.00 | 0.00 | 0.00 | 68 | 1008.4 |
| 20260508102231 | 44 | 293 | 5.0 | 21.0 | 0.00 | 0.00 | 0.00 | 67 | 1008.4 |
| 20260508101722 | 44 | 225 | 4.0 | 23.0 | 0.00 | 0.00 | 0.00 | 67 | 1008.2 |
| 20260508101211 | 44 | 248 | 6.0 | 23.0 | 0.00 | 0.00 | 0.00 | 67 | 1008.4 |
| 20260508100701 | 44 | 248 | 3.0 | 16.0 | 0.00 | 0.00 | 0.00 | 67 | 1008.4 |
| 20260508100151 | 44 | 270 | 6.0 | 21.0 | 0.00 | 0.00 | 0.00 | 66 | 1008.2 |
| 20260508095643 | 44 | 225 | 3.0 | 21.0 | 0.00 | 0.00 | 0.00 | 66 | 1008.3 |
| 20260508095130 | 44 | 293 | 7.0 | 21.0 | 0.00 | 0.00 | 0.00 | 66 | 1008.4 |
| 20260508094630 | 44 | 248 | 3.0 | 15.0 | 0.00 | 0.00 | 0.00 | 67 | 1008.4 |
| 20260508094108 | 44 | 270 | 4.0 | 18.0 | 0.00 | 0.00 | 0.00 | 66 | 1008.2 |
| 20260508093600 | 44 | 270 | 7.0 | 23.0 | 0.00 | 0.00 | 0.00 | 66 | 1008.2 |
| 20260508093050 | 44 | 270 | 11.0 | 24.0 | 0.00 | 0.00 | 0.00 | 65 | 1008.3 |
| 20260508092540 | 44 | 270 | 11.0 | 24.0 | 0.00 | 0.00 | 0.00 | 65 | 1008.2 |
| 20260508091011 | 44 | 270 | 12.0 | 23.0 | 0.00 | 0.00 | 0.00 | 66 | 1008.0 |
| 20260508090459 | 44 | 270 | 13.0 | 23.0 | 0.00 | 0.00 | 0.00 | 67 | 1007.9 |
| 20260508085949 | 44 | 248 | 9.0 | 20.0 | 0.00 | 0.00 | 0.00 | 68 | 1007.7 |
| 20260508085440 | 44 | 225 | 7.0 | 21.0 | 0.00 | 0.00 | 0.00 | 68 | 1008.0 |
| 20260508084929 | 44 | 270 | 11.0 | 23.0 | 0.00 | 0.00 | 0.00 | 67 | 1007.8 |
| 20260508083910 | 44 | 270 | 11.0 | 24.0 | 0.00 | 0.00 | 0.00 | 70 | 1007.7 |
| 20260508083358 | 43 | 270 | 9.0 | 21.0 | 0.00 | 0.00 | 0.00 | 72 | 1008.0 |
| 20260508082338 | 43 | 270 | 11.0 | 18.0 | 0.00 | 0.00 | 0.00 | 73 | 1007.9 |
| 20260508081830 | 43 | 270 | 10.0 | 18.0 | 0.00 | 0.00 | 0.00 | 74 | 1007.5 |
| 20260508081318 | 43 | 270 | 13.0 | 18.0 | 0.00 | 0.00 | 0.00 | 73 | 1007.8 |
| 20260508075746 | 43 | 270 | 11.0 | 20.0 | 0.00 | 0.00 | 0.00 | 76 | 1007.6 |
| 20260508075237 | 43 | 248 | 13.0 | 20.0 | 0.00 | 0.00 | 0.00 | 76 | 1007.6 |
| 20260508074725 | 43 | 270 | 15.0 | 20.0 | 0.00 | 0.00 | 0.00 | 77 | 1007.7 |
| 20260508074213 | 43 | 270 | 10.0 | 16.0 | 0.00 | 0.00 | 0.00 | 77 | 1007.5 |
| 20260508073708 | 43 | 293 | 9.0 | 17.0 | 0.00 | 0.00 | 0.00 | 76 | 1007.7 |
| 20260508073158 | 44 | 270 | 13.0 | 17.0 | 0.00 | 0.00 | 0.00 | 73 | 1007.9 |
| 20260508072650 | 44 | 293 | 11.0 | 17.0 | 0.00 | 0.00 | 0.00 | 72 | 1008.0 |
| 20260508072137 | 44 | 270 | 9.0 | 14.0 | 0.00 | 0.00 | 0.00 | 74 | 1008.0 |
| 20260508071629 | 44 | 270 | 8.0 | 13.0 | 0.00 | 0.00 | 0.00 | 76 | 1008.2 |
| 20260508071115 | 44 | 293 | 9.0 | 13.0 | 0.00 | 0.00 | 0.00 | 76 | 1008.0 |
| 20260508070607 | 44 | 293 | 10.0 | 14.0 | 0.00 | 0.00 | 0.00 | 76 | 1008.2 |
| 20260508065555 | 45 | 270 | 8.0 | 14.0 | 0.00 | 0.00 | 0.00 | 75 | 1008.3 |
| 20260508065036 | 45 | 293 | 10.0 | 15.0 | 0.00 | 0.00 | 0.00 | 73 | 1008.3 |
| 20260508064535 | 46 | 270 | 9.0 | 15.0 | 0.00 | 0.00 | 0.00 | 73 | 1008.3 |
| 20260508064014 | 46 | 270 | 8.0 | 15.0 | 0.00 | 0.00 | 0.00 | 72 | 1008.2 |
| 20260508063502 | 46 | 293 | 8.0 | 0.0 | 0.00 | 0.00 | 0.00 | 73 | 1008.3 |
| 20260508063219 | 46 | 293 | 6.0 | 0.0 | 0.00 | 0.00 | 0.00 | 72 | 1008.3 |
| 20260508062551 | 47 | 270 | 7.0 | 18.0 | 0.00 | 0.00 | 0.00 | 71 | 1008.3 |
| 20260508061513 | 47 | 248 | 4.0 | 16.0 | 0.00 | 0.00 | 0.00 | 71 | 1008.6 |
| 20260508061007 | 47 | 270 | 4.0 | 17.0 | 0.00 | 0.00 | 0.00 | 72 | 1008.2 |
| 20260508060452 | 47 | 248 | 3.0 | 17.0 | 0.00 | 0.00 | 0.00 | 71 | 1008.4 |
| 20260508055950 | 47 | 315 | 4.0 | 16.0 | 0.00 | 0.00 | 0.00 | 72 | 1008.4 |
| 20260508055435 | 48 | 270 | 9.0 | 16.0 | 0.00 | 0.00 | 0.00 | 71 | 1008.6 |
| 20260508054926 | 48 | 270 | 4.0 | 18.0 | 0.00 | 0.00 | 0.00 | 72 | 1008.4 |
| 20260508054415 | 48 | 158 | 5.0 | 18.0 | 0.00 | 0.00 | 0.00 | 72 | 1008.3 |
| 20260508053906 | 48 | 203 | 4.0 | 17.0 | 0.00 | 0.00 | 0.00 | 73 | 1008.2 |
| 20260508052846 | 49 | 270 | 6.0 | 16.0 | 0.00 | 0.00 | 0.00 | 70 | 1008.2 |
| 20260508052336 | 49 | 270 | 3.0 | 16.0 | 0.00 | 0.00 | 0.00 | 70 | 1008.3 |
| 20260508051823 | 49 | 270 | 7.0 | 15.0 | 0.00 | 0.00 | 0.00 | 70 | 1008.1 |
| 20260508051316 | 49 | 270 | 4.0 | 14.0 | 0.00 | 0.00 | 0.00 | 73 | 1008.5 |
| 20260508050806 | 47 | 248 | 2.0 | 15.0 | 0.00 | 0.00 | 0.00 | 77 | 1008.3 |
| 20260508050255 | 47 | 270 | 8.0 | 16.0 | 0.00 | 0.00 | 0.00 | 79 | 1008.2 |
| 20260508045742 | 47 | 270 | 8.0 | 16.0 | 0.00 | 0.00 | 0.00 | 79 | 1008.6 |
| 20260508045233 | 47 | 270 | 8.0 | 13.0 | 0.00 | 0.00 | 0.00 | 80 | 1008.3 |
| 20260508044723 | 47 | 270 | 9.0 | 13.0 | 0.00 | 0.00 | 0.00 | 80 | 1008.2 |
| 20260508044212 | 47 | 293 | 8.0 | 14.0 | 0.00 | 0.00 | 0.00 | 81 | 1008.0 |
| 20260508043155 | 47 | 293 | 7.0 | 14.0 | 0.00 | 0.00 | 0.00 | 80 | 1008.1 |
| 20260508042644 | 47 | 293 | 5.0 | 14.0 | 0.00 | 0.00 | 0.00 | 80 | 1008.1 |
| 20260508042132 | 47 | 293 | 7.0 | 13.0 | 0.00 | 0.00 | 0.00 | 80 | 1008.3 |
| 20260508041624 | 47 | 270 | 7.0 | 13.0 | 0.00 | 0.00 | 0.00 | 80 | 1008.3 |
| 20260508040604 | 47 | 270 | 8.0 | 15.0 | 0.00 | 0.00 | 0.00 | 80 | 1008.1 |
| 20260508040104 | 47 | 293 | 9.0 | 13.0 | 0.00 | 0.00 | 0.00 | 80 | 1008.4 |
| 20260508035544 | 47 | 293 | 10.0 | 13.0 | 0.00 | 0.00 | 0.00 | 81 | 1008.2 |
| 20260508035028 | 47 | 293 | 8.0 | 11.0 | 0.00 | 0.00 | 0.00 | 82 | 1008.2 |
| 20260508034014 | 47 | 270 | 5.0 | 11.0 | 0.00 | 0.00 | 0.00 | 82 | 1008.2 |
| 20260508033503 | 48 | 270 | 5.0 | 11.0 | 0.00 | 0.00 | 0.00 | 82 | 1008.2 |
| 20260508032954 | 48 | 293 | 3.0 | 9.0 | 0.00 | 0.00 | 0.00 | 81 | 1008.1 |
| 20260508032441 | 48 | 270 | 4.0 | 9.0 | 0.00 | 0.00 | 0.00 | 82 | 1007.9 |
| 20260508031930 | 48 | 270 | 5.0 | 9.0 | 0.00 | 0.00 | 0.00 | 81 | 1008.0 |
| 20260508031424 | 49 | 293 | 4.0 | 8.0 | 0.00 | 0.00 | 0.00 | 81 | 1008.0 |
| 20260508025852 | 49 | 270 | 0.0 | 7.0 | 0.00 | 0.00 | 0.61 | 80 | 1007.4 |
| 20260508025339 | 49 | 270 | 2.0 | 7.0 | 0.00 | 0.00 | 0.61 | 81 | 1007.3 |
| 20260508024832 | 49 | 293 | 0.0 | 4.0 | 0.00 | 0.00 | 0.61 | 80 | 1007.3 |
| 20260508024321 | 50 | 270 | 0.0 | 4.0 | 0.00 | 0.00 | 0.61 | 80 | 1007.3 |
| 20260508023812 | 50 | 293 | 0.0 | 4.0 | 0.00 | 0.00 | 0.61 | 79 | 1007.4 |
| 20260508023304 | 51 | 270 | 0.0 | 4.0 | 0.00 | 0.00 | 0.61 | 79 | 1007.3 |
| 20260508022756 | 51 | 270 | 0.0 | 4.0 | 0.00 | 0.00 | 0.61 | 78 | 1007.2 |
| 20260508022251 | 52 | 270 | 1.0 | 4.0 | 0.00 | 0.00 | 0.61 | 76 | 1007.4 |
| 20260508021737 | 52 | 270 | 0.0 | 4.0 | 0.00 | 0.00 | 0.61 | 76 | 1007.1 |
| 20260508021222 | 53 | 248 | 2.0 | 4.0 | 0.00 | 0.00 | 0.61 | 75 | 1007.2 |
| 20260508020904 | 53 | 270 | 0.0 | 0.0 | 0.00 | 0.00 | 0.61 | 75 | 1007.4 |
| 20260508020455 | 53 | 270 | 1.0 | 8.0 | 0.00 | 0.00 | 0.61 | 75 | 1007.1 |
| 20260508015944 | 53 | 248 | 0.0 | 8.0 | 0.00 | 0.00 | 0.61 | 75 | 1007.2 |
| 20260508015435 | 53 | 270 | 0.0 | 7.0 | 0.00 | 0.00 | 0.61 | 74 | 1007.2 |
| 20260508014922 | 53 | 248 | 1.0 | 9.0 | 0.00 | 0.00 | 0.61 | 73 | 1007.1 |
| 20260508014415 | 54 | 248 | 1.0 | 9.0 | 0.00 | 0.00 | 0.61 | 73 | 1007.2 |
| 20260508013905 | 54 | 293 | 0.0 | 4.0 | 0.00 | 0.00 | 0.61 | 72 | 1007.1 |
| 20260508013354 | 54 | 248 | 0.0 | 4.0 | 0.00 | 0.00 | 0.61 | 72 | 1007.2 |
| 20260508012841 | 55 | 203 | 0.0 | 4.0 | 0.00 | 0.00 | 0.61 | 72 | 1007.1 |
| 20260508011314 | 55 | 113 | 0.0 | 4.0 | 0.00 | 0.00 | 0.61 | 72 | 1007.3 |
| 20260508010804 | 55 | 293 | 0.0 | 4.0 | 0.00 | 0.00 | 0.61 | 71 | 1007.1 |
| 20260508010254 | 55 | 338 | 0.0 | 4.0 | 0.00 | 0.00 | 0.61 | 71 | 1007.2 |
| 20260508005740 | 54 | 270 | 0.0 | 4.0 | 0.00 | 0.00 | 0.61 | 71 | 1007.4 |
| 20260508005233 | 54 | 203 | 0.0 | 6.0 | 0.00 | 0.00 | 0.61 | 71 | 1007.2 |
| 20260508004722 | 55 | 248 | 1.0 | 7.0 | 0.00 | 0.00 | 0.61 | 68 | 1007.2 |
| 20260508004213 | 55 | 270 | 1.0 | 7.0 | 0.00 | 0.00 | 0.61 | 69 | 1007.1 |
| 20260508003703 | 55 | 248 | 2.0 | 7.0 | 0.00 | 0.00 | 0.61 | 68 | 1007.1 |
| 20260508003152 | 56 | 293 | 0.0 | 7.0 | 0.00 | 0.00 | 0.61 | 67 | 1007.2 |
| 20260508002642 | 56 | 293 | 0.0 | 9.0 | 0.00 | 0.00 | 0.61 | 67 | 1007.0 |
| 20260508002133 | 56 | 203 | 4.0 | 9.0 | 0.00 | 0.00 | 0.61 | 66 | 1007.1 |
| 20260508001622 | 56 | 225 | 1.0 | 6.0 | 0.00 | 0.00 | 0.61 | 65 | 1007.5 |
| 20260508001109 | 56 | 293 | 1.0 | 6.0 | 0.00 | 0.00 | 0.61 | 64 | 1007.2 |
| 20260508000604 | 56 | 293 | 1.0 | 14.0 | 0.00 | 0.00 | 0.61 | 64 | 1007.5 |
| 20260508000053 | 57 | 293 | 1.0 | 14.0 | 0.00 | 0.00 | 0.61 | 63 | 1007.3 |
| 20260507235538 | 57 | 315 | 2.0 | 9.0 | 0.00 | 0.00 | 0.61 | 63 | 1007.6 |
| 20260507235031 | 57 | 248 | 2.0 | 11.0 | 0.00 | 0.00 | 0.61 | 63 | 1007.4 |
| 20260507234517 | 57 | 225 | 2.0 | 11.0 | 0.00 | 0.00 | 0.61 | 62 | 1007.4 |
| 20260507234010 | 57 | 0 | 0.0 | 4.0 | 0.00 | 0.00 | 0.61 | 63 | 1007.5 |
| 20260507232947 | 58 | 293 | 1.0 | 4.0 | 0.00 | 0.00 | 0.61 | 62 | 1007.4 |
| 20260507232444 | 58 | 225 | 0.0 | 4.0 | 0.00 | 0.00 | 0.61 | 62 | 1007.4 |
| 20260507231927 | 58 | 293 | 0.0 | 7.0 | 0.00 | 0.00 | 0.61 | 63 | 1007.6 |
| 20260507231416 | 58 | 90 | 0.0 | 7.0 | 0.00 | 0.00 | 0.61 | 63 | 1007.5 |
| 20260507230906 | 58 | 225 | 1.0 | 7.0 | 0.00 | 0.00 | 0.61 | 63 | 1007.4 |
| 20260507230402 | 58 | 293 | 0.0 | 9.0 | 0.00 | 0.00 | 0.61 | 63 | 1007.4 |
| 20260507225336 | 58 | 293 | 1.0 | 7.0 | 0.00 | 0.00 | 0.61 | 65 | 1007.2 |
| 20260507224301 | 58 | 225 | 0.0 | 13.0 | 0.00 | 0.00 | 0.61 | 66 | 1007.3 |
| 20260507223753 | 58 | 0 | 0.0 | 13.0 | 0.00 | 0.00 | 0.61 | 65 | 1007.2 |
| 20260507222226 | 58 | 293 | 0.0 | 9.0 | 0.00 | 0.00 | 0.61 | 65 | 1007.0 |
| 20260507221710 | 58 | 270 | 2.0 | 9.0 | 0.00 | 0.00 | 0.61 | 66 | 1006.9 |
| 20260507221203 | 58 | 270 | 0.0 | 6.0 | 0.00 | 0.00 | 0.61 | 66 | 1006.7 |
| 20260507215636 | 58 | 248 | 0.0 | 11.0 | 0.00 | 0.00 | 0.61 | 66 | 1006.7 |
| 20260507215122 | 58 | 113 | 0.0 | 11.0 | 0.00 | 0.00 | 0.61 | 66 | 1006.1 |
| 20260507214615 | 58 | 270 | 1.0 | 4.0 | 0.00 | 0.00 | 0.61 | 66 | 1006.0 |
| 20260507214107 | 58 | 203 | 0.0 | 4.0 | 0.00 | 0.00 | 0.61 | 66 | 1005.7 |
| 20260507213047 | 58 | 293 | 1.0 | 8.0 | 0.00 | 0.00 | 0.61 | 66 | 1005.5 |
| 20260507212532 | 58 | 293 | 1.0 | 6.0 | 0.00 | 0.00 | 0.61 | 66 | 1005.5 |
| 20260507212022 | 58 | 158 | 1.0 | 6.0 | 0.00 | 0.00 | 0.61 | 66 | 1005.8 |
| 20260507211516 | 58 | 203 | 2.0 | 9.0 | 0.00 | 0.00 | 0.61 | 65 | 1005.6 |
| 20260507211004 | 58 | 90 | 0.0 | 11.0 | 0.00 | 0.00 | 0.61 | 65 | 1005.5 |
| 20260507210453 | 59 | 158 | 4.0 | 14.0 | 0.00 | 0.00 | 0.61 | 63 | 1005.6 |
| 20260507205941 | 59 | 45 | 4.0 | 14.0 | 0.00 | 0.00 | 0.61 | 64 | 1005.6 |
| 20260507205431 | 59 | 248 | 2.0 | 8.0 | 0.00 | 0.00 | 0.61 | 66 | 1005.4 |
| 20260507204414 | 59 | 23 | 2.0 | 11.0 | 0.00 | 0.00 | 0.61 | 65 | 1005.9 |
| 20260507203902 | 59 | 225 | 1.0 | 7.0 | 0.00 | 0.00 | 0.61 | 65 | 1005.7 |
| 20260507203352 | 59 | 158 | 2.0 | 8.0 | 0.00 | 0.00 | 0.61 | 64 | 1005.5 |
| 20260507202837 | 59 | 248 | 2.0 | 8.0 | 0.00 | 0.00 | 0.61 | 64 | 1005.7 |
| 20260507202334 | 59 | 225 | 0.0 | 9.0 | 0.00 | 0.00 | 0.61 | 65 | 1005.8 |
| 20260507201820 | 59 | 180 | 0.0 | 9.0 | 0.00 | 0.00 | 0.61 | 64 | 1005.8 |
| 20260507201312 | 60 | 270 | 2.0 | 9.0 | 0.00 | 0.00 | 0.61 | 63 | 1005.6 |
| 20260507200802 | 60 | 293 | 2.0 | 11.0 | 0.00 | 0.00 | 0.61 | 63 | 1005.6 |
| 20260507200252 | 60 | 180 | 4.0 | 11.0 | 0.00 | 0.00 | 0.61 | 62 | 1005.7 |
| 20260507195737 | 60 | 225 | 3.0 | 11.0 | 0.00 | 0.00 | 0.61 | 61 | 1005.6 |
| 20260507195236 | 60 | 180 | 2.0 | 11.0 | 0.00 | 0.00 | 0.61 | 63 | 1005.6 |
| 20260507193701 | 60 | 270 | 6.0 | 14.0 | 0.00 | 0.00 | 0.61 | 61 | 1005.3 |
| 20260507193155 | 60 | 225 | 7.0 | 14.0 | 0.00 | 0.00 | 0.61 | 60 | 1005.0 |
| 20260507192643 | 61 | 270 | 4.0 | 16.0 | 0.00 | 0.00 | 0.61 | 60 | 1005.1 |
| 20260507192131 | 61 | 248 | 4.0 | 17.0 | 0.00 | 0.00 | 0.61 | 59 | 1004.6 |
| 20260507191616 | 62 | 225 | 8.0 | 17.0 | 0.00 | 0.00 | 0.61 | 59 | 1004.5 |
| 20260507191105 | 61 | 225 | 6.0 | 18.0 | 0.00 | 0.00 | 0.61 | 59 | 1004.4 |
| 20260507190601 | 61 | 248 | 14.0 | 18.0 | 0.00 | 0.00 | 0.61 | 57 | 1004.1 |
| 20260507190050 | 61 | 293 | 6.0 | 17.0 | 0.00 | 0.00 | 0.61 | 59 | 1003.6 |